| time (UTC) | temp C | wind direction | speed KPH | gust KPH | rain 1hr cm | rain 24hr cm | rain mn cm | humidity % | barometer mb |
| 20260505095536 | 24 | 87 | 4.8 | 9.7 | 0.00 | 0.00 | 0.00 | 42 | 1005.9 |
| 20260505092536 | 23 | 62 | 4.8 | 12.9 | 0.00 | 0.00 | 0.00 | 47 | 1006.2 |
| 20260505085536 | 22 | 125 | 1.6 | 9.7 | 0.00 | 0.00 | 0.00 | 44 | 1006.3 |
| 20260505082842 | 21 | 77 | 1.6 | 6.4 | 0.00 | 0.00 | 0.00 | 44 | 1006.8 |
| 20260505082536 | 21 | 77 | 1.6 | 6.4 | 0.00 | 0.00 | 0.00 | 44 | 1006.8 |
| 20260505075537 | 20 | 145 | 0.0 | 3.2 | 0.00 | 0.00 | 0.00 | 49 | 1007.0 |
| 20260505072537 | 18 | 311 | 0.0 | 1.6 | 0.00 | 0.00 | 0.00 | 55 | 1007.2 |
| 20260505065537 | 16 | 350 | 0.0 | 3.2 | 0.00 | 0.00 | 0.00 | 58 | 1007.5 |
| 20260505062537 | 14 | 350 | 0.0 | 1.6 | 0.00 | 0.00 | 0.00 | 63 | 1007.7 |
| 20260505055537 | 11 | 350 | 0.0 | 0.0 | 0.00 | 0.00 | 0.00 | 72 | 1007.9 |
| 20260505052537 | 8 | 350 | 0.0 | 0.0 | 0.00 | 0.00 | 0.00 | 80 | 1007.8 |
| 20260505035537 | 7 | 350 | 0.0 | 1.6 | 0.00 | 0.00 | 0.00 | 79 | 1007.9 |
| 20260505032537 | 8 | 350 | 0.0 | 0.0 | 0.00 | 0.00 | 0.00 | 78 | 1008.0 |
| 20260505025537 | 8 | 350 | 0.0 | 1.6 | 0.00 | 0.00 | 0.00 | 78 | 1007.9 |
| 20260505015538 | 8 | 350 | 0.0 | 0.0 | 0.00 | 0.00 | 0.00 | 75 | 1008.4 |
| 20260505012538 | 9 | 350 | 0.0 | 0.0 | 0.00 | 0.00 | 0.00 | 74 | 1008.5 |
| 20260505005538 | 9 | 350 | 0.0 | 0.0 | 0.00 | 0.00 | 0.00 | 73 | 1008.8 |
| 20260505002538 | 10 | 350 | 0.0 | 1.6 | 0.00 | 0.00 | 0.00 | 72 | 1009.0 |
| 20260504235538 | 10 | 327 | 0.0 | 3.2 | 0.00 | 0.00 | 0.00 | 71 | 1009.3 |
| 20260504232538 | 11 | 50 | 0.0 | 0.0 | 0.00 | 0.00 | 0.00 | 68 | 1009.4 |
| 20260504225538 | 11 | 50 | 0.0 | 0.0 | 0.00 | 0.00 | 0.00 | 67 | 1009.7 |
| 20260504222538 | 12 | 50 | 0.0 | 0.0 | 0.00 | 0.00 | 0.00 | 65 | 1009.8 |
| 20260504215538 | 13 | 50 | 0.0 | 0.0 | 0.00 | 0.00 | 0.00 | 63 | 1009.8 |
| 20260504212538 | 14 | 47 | 0.0 | 1.6 | 0.00 | 0.00 | 0.00 | 58 | 1009.6 |
| 20260504205538 | 16 | 46 | 0.0 | 0.0 | 0.00 | 0.00 | 0.00 | 52 | 1009.7 |
| 20260504202539 | 17 | 46 | 0.0 | 1.6 | 0.00 | 0.00 | 0.00 | 48 | 1009.6 |
| 20260504195539 | 18 | 120 | 3.2 | 8.0 | 0.00 | 0.00 | 0.00 | 44 | 1009.5 |
| 20260504192539 | 18 | 101 | 3.2 | 6.4 | 0.00 | 0.00 | 0.00 | 44 | 1009.6 |
| 20260504185539 | 19 | 81 | 1.6 | 8.0 | 0.00 | 0.00 | 0.00 | 44 | 1009.8 |
| 20260504182539 | 20 | 79 | 1.6 | 4.8 | 0.00 | 0.00 | 0.00 | 43 | 1009.7 |
| 20260504175539 | 21 | 89 | 1.6 | 6.4 | 0.00 | 0.00 | 0.00 | 41 | 1009.6 |
| 20260504172539 | 22 | 58 | 3.2 | 6.4 | 0.00 | 0.00 | 0.00 | 38 | 1009.7 |